Tracking 29065 objects as of 22-Jul-2024
HD Live streaming from Space Station
objects crossing your sky now

COSMOS 1275 DEB

Track COSMOS 1275 DEB now!
10-day predictions


NORAD ID: 42166
Int'l Code: 1981-053SE
Perigee: 821.7 km
Apogee: 1,037.1 km
Inclination: 82.9 °
Period: 103.5 minutes
Semi major axis: 7300 km
RCS: Unknown
Launch date: June 4, 1981
Source: Commonwealth of Independent States (former USSR) (CIS)
Launch site: PLESETSK MISSILE AND SPACE COMPLEX (PKMTR)

Note: This is SATELLITE DEBRIS
Your satellite tracking list
Your tracking list is empty




NASA's NSSDC Master Catalog

Two Line Element Set (TLE):
1 42166U 81053SE  24203.35032700  .00005560  00000-0  39881-2 0  9994
2 42166  82.8861  66.1720 0147507  37.4147 323.7178 13.91809914538952
Source of the keplerian elements: AFSPC